When you browse on this site, cookies collect data to enhance your experience and personalize the content and advertising you see.
Visit our Privacy Policy to learn more. By continuing to use the site, you agree to this use of cookies and data.
  • In Latvia
  • List of Countries
  • For 7 days
  • Water Temperature
  • Satellite Maps
  • Weather Map
  • Weather Widgets
  • user-avatar
    Login

    Hourly Weather Viedma

    Today, 10 December, Monday

    Time Temperature Precipitation Wind Pressure Humidity
    00:00 +21°C° 0 mm 4 mps 753 mmHg 49%
    01:00 +20°C° 0 mm 4 mps 753 mmHg 50%
    02:00 +20°C° 0 mm 4 mps 753 mmHg 51%
    03:00 +20°C° 0 mm 4 mps 753 mmHg 52%
    04:00 +20°C° 0 mm 4 mps 753 mmHg 52%
    05:00 +20°C° 0 mm 4 mps 753 mmHg 52%
    06:00 +22°C° 0 mm 5 mps 753 mmHg 44%
    07:00 +24°C° 0 mm 6 mps 754 mmHg 36%
    08:00 +27°C° 0 mm 6 mps 754 mmHg 28%
    09:00 +29°C° 0 mm 7 mps 754 mmHg 25%
    10:00 +30°C° 0 mm 7 mps 753 mmHg 21%
    11:00 +32°C° 0 mm 8 mps 753 mmHg 17%
    12:00 +33°C° 0 mm 8 mps 753 mmHg 17%
    13:00 +33°C° 0 mm 8 mps 753 mmHg 17%
    14:00 +34°C° 0 mm 8 mps 752 mmHg 17%
    15:00 +34°C° 0 mm 7 mps 752 mmHg 18%
    16:00 +33°C° 0 mm 7 mps 752 mmHg 19%
    17:00 +33°C° 0 mm 6 mps 752 mmHg 20%
    18:00 +30°C° 0 mm 5 mps 752 mmHg 23%
    19:00 +29°C° 0 mm 5 mps 752 mmHg 26%
    20:00 +27°C° 0 mm 4 mps 752 mmHg 30%
    21:00 +26°C° 0 mm 4 mps 752 mmHg 33%
    22:00 +25°C° 0 mm 4 mps 753 mmHg 36%
    23:00 +25°C° 0 mm 3 mps 753 mmHg 39%

    Tomorrow, 11 December, Tuesday

    Time Temperature Precipitation Wind Pressure Humidity
    00:00 +25°C° 0 mm 4 mps 753 mmHg 42%
    01:00 +25°C° 0 mm 5 mps 753 mmHg 44%
    02:00 +24°C° 0 mm 6 mps 753 mmHg 47%
    03:00 +23°C° 0.3 mm 6 mps 753 mmHg 51%
    04:00 +23°C° 0.3 mm 6 mps 753 mmHg 56%
    05:00 +22°C° 0.3 mm 6 mps 753 mmHg 61%
    06:00 +23°C° 0.1 mm 6 mps 753 mmHg 57%
    07:00 +24°C° 0.1 mm 6 mps 753 mmHg 52%
    08:00 +26°C° 0.1 mm 5 mps 753 mmHg 48%
    09:00 +27°C° 0 mm 6 mps 753 mmHg 42%
    10:00 +28°C° 0 mm 6 mps 753 mmHg 36%
    11:00 +28°C° 0 mm 6 mps 753 mmHg 30%
    12:00 +28°C° 0 mm 6 mps 753 mmHg 29%
    13:00 +28°C° 0 mm 6 mps 753 mmHg 28%
    14:00 +28°C° 0 mm 5 mps 753 mmHg 28%
    15:00 +27°C° 0 mm 6 mps 753 mmHg 29%
    16:00 +27°C° 0 mm 6 mps 753 mmHg 30%
    17:00 +26°C° 0 mm 7 mps 753 mmHg 31%
    18:00 +23°C° 0 mm 6 mps 754 mmHg 36%
    19:00 +21°C° 0 mm 6 mps 754 mmHg 40%
    20:00 +20°C° 0 mm 5 mps 755 mmHg 45%
    21:00 +19°C° 0 mm 4 mps 756 mmHg 48%
    22:00 +18°C° 0 mm 2 mps 756 mmHg 51%
    23:00 +19°C° 0 mm 1 mps 757 mmHg 54%

    Day after tomorrow, 12 December, Wednesday

    Time Temperature Precipitation Wind Pressure Humidity
    00:00 +19°C° 0 mm 1 mps 757 mmHg 53%
    01:00 +19°C° 0 mm 1 mps 757 mmHg 53%
    02:00 +18°C° 0 mm 1 mps 757 mmHg 52%
    03:00 +17°C° 0 mm 2 mps 757 mmHg 51%
    04:00 +17°C° 0 mm 2 mps 757 mmHg 50%
    05:00 +17°C° 0 mm 2 mps 757 mmHg 49%
    06:00 +19°C° 0 mm 3 mps 758 mmHg 44%
    07:00 +21°C° 0 mm 3 mps 758 mmHg 39%
    08:00 +24°C° 0 mm 3 mps 758 mmHg 33%
    09:00 +25°C° 0 mm 3 mps 758 mmHg 31%
    10:00 +26°C° 0 mm 3 mps 758 mmHg 29%
    11:00 +27°C° 0 mm 2 mps 758 mmHg 27%
    12:00 +27°C° 0 mm 3 mps 758 mmHg 26%
    13:00 +28°C° 0 mm 4 mps 757 mmHg 25%
    14:00 +29°C° 0 mm 5 mps 756 mmHg 24%
    15:00 +28°C° 0 mm 6 mps 756 mmHg 25%
    16:00 +28°C° 0 mm 7 mps 755 mmHg 26%
    17:00 +28°C° 0 mm 8 mps 754 mmHg 27%
    18:00 +26°C° 0 mm 8 mps 754 mmHg 31%
    19:00 +23°C° 0 mm 8 mps 755 mmHg 36%
    20:00 +22°C° 0 mm 8 mps 755 mmHg 40%
    21:00 +21°C° 0 mm 8 mps 755 mmHg 43%
    22:00 +21°C° 0 mm 7 mps 755 mmHg 46%
    23:00 +20°C° 0 mm 7 mps 755 mmHg 48%

    13 December, Thursday

    Time Temperature Precipitation Wind Pressure Humidity
    00:00 +20°C° 0 mm 7 mps 754 mmHg 50%
    01:00 +20°C° 0 mm 7 mps 754 mmHg 53%
    02:00 +20°C° 0 mm 7 mps 753 mmHg 55%
    03:00 +20°C° 0 mm 6 mps 753 mmHg 55%
    04:00 +20°C° 0 mm 6 mps 753 mmHg 55%
    05:00 +20°C° 0 mm 5 mps 753 mmHg 54%
    06:00 +22°C° 0 mm 6 mps 753 mmHg 48%
    07:00 +24°C° 0 mm 6 mps 753 mmHg 42%
    08:00 +27°C° 0 mm 7 mps 753 mmHg 36%
    09:00 +28°C° 0 mm 7 mps 753 mmHg 33%
    10:00 +29°C° 0 mm 7 mps 753 mmHg 31%
    11:00 +32°C° 0 mm 8 mps 752 mmHg 29%
    12:00 +32°C° 0 mm 8 mps 751 mmHg 28%
    13:00 +32°C° 0 mm 8 mps 751 mmHg 27%
    14:00 +32°C° 0 mm 8 mps 750 mmHg 26%
    15:00 +31°C° 1 mm 8 mps 750 mmHg 33%
    16:00 +28°C° 1 mm 8 mps 750 mmHg 39%
    17:00 +27°C° 1 mm 8 mps 750 mmHg 46%
    18:00 +26°C° 2 mm 7 mps 750 mmHg 54%
    19:00 +23°C° 2 mm 5 mps 750 mmHg 62%
    20:00 +22°C° 2 mm 3 mps 751 mmHg 70%
    21:00 +21°C° 4.5 mm 4 mps 751 mmHg 72%
    22:00 +21°C° 4.5 mm 5 mps 751 mmHg 73%
    23:00 +20°C° 4.5 mm 6 mps 751 mmHg 74%

    14 December, Friday

    Time Temperature Precipitation Wind Pressure Humidity
    00:00 +20°C° 0.2 mm 7 mps 750 mmHg 73%
    01:00 +18°C° 0.2 mm 8 mps 750 mmHg 72%
    02:00 +18°C° 0.2 mm 9 mps 749 mmHg 72%
    03:00 +17°C° 0.1 mm 8 mps 749 mmHg 71%
    04:00 +17°C° 0.1 mm 7 mps 749 mmHg 70%
    05:00 +16°C° 0.1 mm 6 mps 749 mmHg 70%
    06:00 +17°C° 0.7 mm 4 mps 749 mmHg 69%
    07:00 +18°C° 0.7 mm 3 mps 749 mmHg 69%
    08:00 +18°C° 0.7 mm 2 mps 749 mmHg 68%
    09:00 +18°C° 0.3 mm 4 mps 749 mmHg 65%
    10:00 +18°C° 0.3 mm 7 mps 749 mmHg 62%
    11:00 +18°C° 0.3 mm 9 mps 749 mmHg 60%
    12:00 +19°C° 0 mm 10 mps 749 mmHg 56%
    13:00 +19°C° 0 mm 12 mps 749 mmHg 52%
    14:00 +20°C° 0 mm 13 mps 749 mmHg 48%
    15:00 +21°C° 0 mm 12 mps 750 mmHg 45%
    16:00 +21°C° 0 mm 10 mps 750 mmHg 42%
    17:00 +21°C° 0 mm 9 mps 750 mmHg 39%
    18:00 +20°C° 0 mm 8 mps 751 mmHg 42%
    19:00 +19°C° 0 mm 6 mps 752 mmHg 46%
    20:00 +17°C° 0 mm 5 mps 752 mmHg 49%
    21:00 +18°C° 0 mm 4 mps 753 mmHg 53%
    22:00 +17°C° 0 mm 3 mps 753 mmHg 57%
    23:00 +16°C° 0 mm 2 mps 754 mmHg 62%

    15 December, Saturday

    Time Temperature Precipitation Wind Pressure Humidity
    00:00 +16°C° 0 mm 2 mps 754 mmHg 61%
    01:00 +16°C° 0 mm 2 mps 754 mmHg 60%
    02:00 +16°C° 0 mm 2 mps 754 mmHg 60%
    03:00 +16°C° 0 mm 3 mps 754 mmHg 57%
    04:00 +16°C° 0 mm 3 mps 755 mmHg 54%
    05:00 +16°C° 0 mm 3 mps 755 mmHg 51%
    06:00 +17°C° 0 mm 4 mps 755 mmHg 47%
    07:00 +19°C° 0 mm 5 mps 755 mmHg 43%
    08:00 +21°C° 0 mm 6 mps 756 mmHg 39%
    09:00 +22°C° 0 mm 6 mps 755 mmHg 36%
    10:00 +23°C° 0 mm 5 mps 755 mmHg 32%
    11:00 +25°C° 0 mm 5 mps 755 mmHg 29%
    12:00 +26°C° 0 mm 5 mps 755 mmHg 27%
    13:00 +27°C° 0 mm 5 mps 754 mmHg 25%
    14:00 +28°C° 0 mm 4 mps 754 mmHg 23%
    15:00 +28°C° 0 mm 4 mps 753 mmHg 22%
    16:00 +29°C° 0 mm 4 mps 753 mmHg 21%
    17:00 +30°C° 0 mm 4 mps 752 mmHg 20%
    18:00 +28°C° 0 mm 4 mps 752 mmHg 24%
    19:00 +26°C° 0 mm 5 mps 752 mmHg 28%
    20:00 +24°C° 0 mm 6 mps 751 mmHg 32%
    21:00 +24°C° 0 mm 6 mps 751 mmHg 31%
    22:00 +23°C° 0 mm 6 mps 751 mmHg 30%
    23:00 +23°C° 0 mm 6 mps 750 mmHg 29%
    Show more